Location: LDNL
(36.4545°S, 141.6685°E)
Time: 11:32:41
(UTC+10:00)

Vanguard 3 - Pass Details

Date: 04 February 2022
Orbit: 508 x 3258 km, 33.3° (Epoch: 25 May)

Event Time Altitude Azimuth Distance (km) Brightness Sun altitude
Rises 04:58:45 0° 262° (W) 4,898 - -20.5°
Reaches altitude 10° 05:01:45 10° 269° (W) 4,237 - -20.0°
Exits shadow 05:03:35 17° 275° (W) 3,899 10.1 -19.7°
Maximum altitude 05:13:00 41° 333° (NNW) 3,373 9.8 -18.3°
Drops below altitude 10° 05:29:32 10° 34° (NE) 6,109 11.6 -15.6°
Sets 05:35:01 0° 40° (NE) 7,211 12.1 -14.7°
